IRIDIUM 4 [-]

Last updated on Tue Jun 27 2023 00:03:07 GMT+0000 (Coordinated Universal Time)

1 24796U 97020E 23177.37632639 .00000484 00000+0 16068-3 0 9994 2 24796 86.3960 116.5791 0002464 84.6158 275.5320 14.35728108368897

Satellite not in orbit

IRIDIUM 4 [-]